Location: Brahman Valley
(40.6513°N, 111.8855°W)
Time: 21:43:58
(UTC+00:00)

Vanguard 2 - Pass Details

Date: 22 May 2021
Orbit: 552 x 2937 km, 32.9° (Epoch: 14 June)

Event Time Altitude Azimuth Distance (km) Brightness Sun altitude
Rises 14:35:33 0° 271° (W) 4,348 10.8 26.5°
Reaches altitude 10° 14:38:12 10° 264° (W) 3,650 10.5 27.0°
Maximum altitude 14:47:30 44° 196° (SSW) 2,645 10.4 28.7°
Drops below altitude 10° 15:01:41 10° 132° (SE) 5,460 12.6 31.4°
Sets 15:06:41 0° 127° (SE) 6,661 13.0 32.4°
